User: anonymous   Login
Location: Newark
(51.2625°N, 13.3939°E)
Time: 22:25:22
(UTC+00:00)
Language:

Transit 4A - Orbit

View from above orbital plane
View from above orbital plane
View from above satellite
View from above satellite

Ground track
Ground track

The orbit data is extracted from the following two-line orbital elements,

1   116U 61015A   19317.52408001 -.00000050  00000-0  20701-4 0  9992
2   116  66.8117  18.5100 0074063 165.9872 194.3286 13.91761756962121
Epoch (UTC): 13 November 2019 12:34:40
Eccentricity: 0.0074063
inclination: 66.8117°
perigee height: 868 km
apogee height: 976 km
right ascension of ascending node: 18.5100°
argument of perigee: 165.9872°
revolutions per day: 13.91761756
mean anomaly at epoch: 194.3286°
orbit number at epoch: 96212

The dashed part of the orbit path shows where the satellite is in the earth's shadow,  

DLR